Temperature
11 11 11 11 11 11 11 11 11 11 11 11 11 11 11 11 11 11 11 11 11 11 11 11 11 11 11 12 12 12 12 11 11 11 11 11 11 11
11 11 11 11 11 11 11 11 11 11 10 10 11 11 11 11 11 11 11 11 11 11 11 11 11 11 11 11 11 11 11 11 11 11 11 11 11 11
11 11 11 11 11 11 11 10 10 10 10 10 10 10 10 10 10 10 10 10 10 10 10 11 11 11 11 11 11 11 11 11 11 11 11 11 11 11
11 11 11 10 10 10 10 10 10 10 10 10 10 10 10 10 10 10 10 10 10 10 10 10 10 10 10 10 10 10 10 10 10 10 11 11 11 11
10 10 10 10 10 10 10 10 10 10 10 10 10 9 9 9 9 9 9 10 10 10 10 10 10 10 10 10 10 10 10 10 10 10 10 11 10 10
10 10 10 10 10 10 10 10 9 9 9 9 9 9 9 9 9 9 9 9 9 9 9 9 9 9 9 9 9 9 10 10 10 10 10 10 10 10
10 10 10 10 10 10 9 9 9 9 9 9 9 8 8 8 8 8 8 9 8 9 9 9 9 9 9 9 9 9 9 9 9 9 10 10 10 10
10 10 9 9 9 9 9 9 9 9 9 8 8 8 8 8 8 8 8 8 8 8 8 9 8 9 9 9 9 9 9 9 9 9 9 9 9 10
9 9 9 9 9 9 9 9 8 8 8 8 8 8 8 8 8 8 8 8 8 8 8 8 8 8 8 8 8 8 8 8 9 9 9 9 9 9
9 9 9 9 9 9 8 8 8 8 8 8 8 7 7 7 7 7 7 7 7 7 7 7 7 8 8 8 8 8 8 8 8 8 8 9 9 9
8 8 8 8 8 8 8 8 8 7 7 7 7 7 7 7 7 7 7 7 7 7 7 7 7 7 7 7 8 8 8 8 8 8 8 8 8 8
8 8 8 8 8 8 8 7 7 7 7 7 7 7 7 7 7 6 6 6 6 6 6 6 6 6 7 7 7 7 7 7 7 8 8 8 8 8
7 8 7 7 7 7 7 7 7 7 7 7 6 6 6 6 6 6 6 6 6 6 6 6 6 6 6 6 7 7 7 7 7 7 7 7 7 7
7 7 7 7 7 7 7 7 6 6 6 6 6 6 6 6 6 6 6 6 6 6 6 6 6 6 6 6 6 6 6 7 7 7 7 7 7 7
7 6 6 6 6 6 6 6 6 6 6 6 6 6 6 6 5 5 5 5 5 5 5 5 5 5 5 5 5 6 6 6 6 6 6 6 6 6
6 6 6 6 6 5 5 5 5 5 5 5 5 5 5 5 5 5 5 5 5 5 5 5 5 5 5 5 5 5 5 5 6 6 6 6 6 5
6 5 5 5 5 5 5 5 5 5 5 5 5 5 5 5 4 4 4 4 4 5 4 5 5 5 5 5 5 5 5 5 5 5 5 5 5 5
5 5 5 4 4 4 4 4 4 4 4 4 4 4 4 4 4 4 4 4 4 4 4 4 4 4 4 4 4 4 4 4 4 4 4 4 4 4
5 4 4 4 4 4 3 3 3 4 4 4 3 4 4 4 4 4 4 4 4 4 4 4 4 4 4 4 4 4 4 4 4 4 4 4 4 4
4 4 4 4 3 3 3 3 3 3 3 3 3 3 3 3 3 3 3 3 3 3 3 3 3 3 3 3 3 3 3 3 3 3 3 3 3 3
4 4 4 3 3 3 3 3 3 3 3 3 3 3 3 3 3 3 3 3 3 3 2 2 3 3 3 3 3 3 3 3 3 3 3 3 3 3
4 3 3 3 3 3 3 3 2 2 2 2 2 2 2 2 2 2 2 2 2 2 2 2 2 2 2 2 2 2 2 2 2 2 2 2 2 2
3 3 3 3 3 2 2 2 2 2 2 2 2 2 2 2 2 2 2 2 2 2 1 1 2 2 2 1 1 1 1 2 2 2 2 2 2 2
Wind_Speed
1 1 1 1 1 0 0 1 1 1 2 1 1 1 1 3 3 2 2 2 2 2 1 0 0 1 1 1 1 1 1 1 1 1 1 1 2 2
1 1 1 0 1 1 1 1 1 1 1 1 1 1 1 0 1 0 1 2 4 3 3 2 1 1 0 0 0 1 1 1 1 2 2 2 3 3
1 0 1 1 1 0 1 1 0 1 1 2 1 1 2 2 1 1 0 2 3 3 4 3 3 2 1 1 1 0 1 1 1 2 2 2 3 4
1 0 0 1 1 0 0 1 0 0 1 1 2 1 1 1 0 1 1 1 2 3 4 4 3 3 3 2 1 1 1 1 1 2 2 2 3 3
1 1 1 1 1 0 1 1 1 1 0 1 2 1 1 1 1 2 2 1 2 2 3 4 4 5 5 4 3 2 1 1 1 1 1 1 1 3
1 1 1 1 1 1 0 0 0 0 1 1 1 2 1 2 1 1 2 2 2 1 2 3 4 5 5 5 5 4 3 2 2 2 1 1 1 2
1 1 2 2 2 1 1 0 0 0 1 1 1 1 1 1 1 2 2 3 3 1 1 2 2 3 4 5 6 6 5 4 3 3 3 2 2 2
1 1 1 1 1 1 0 0 1 1 1 1 1 2 2 2 2 2 2 2 3 2 1 2 2 2 3 3 4 5 6 5 4 4 3 3 3 3
1 1 0 0 0 0 1 1 1 2 2 2 2 3 3 3 2 2 2 2 3 3 1 3 2 2 3 3 5 5 5 5 4 4 4 4 3 4
1 1 1 0 0 0 1 1 2 3 3 3 3 3 2 2 2 2 3 2 3 2 1 2 2 2 2 3 5 6 6 5 4 4 4 4 4 4
1 0 0 1 1 2 0 1 1 2 3 4 4 3 3 3 2 1 1 1 2 2 1 1 2 2 1 1 4 5 5 4 4 4 5 4 4 4
1 1 2 1 2 2 1 1 2 2 2 2 2 2 2 3 4 3 3 2 1 2 1 1 1 1 2 1 2 2 3 4 5 5 5 4 4 3
1 0 1 2 2 1 1 1 2 3 2 2 1 1 1 1 1 2 3 2 2 2 2 0 1 1 1 1 1 1 2 2 3 3 4 5 4 3
1 1 1 1 2 2 2 3 3 3 1 1 1 1 1 1 2 2 2 2 3 3 2 2 1 1 1 1 1 1 1 1 1 2 3 3 3 2
1 1 1 3 3 2 2 3 2 1 0 1 1 2 1 1 1 1 1 1 1 1 2 2 1 1 1 1 1 1 1 1 1 1 2 1 1 1
1 1 2 2 2 2 2 2 1 1 1 1 1 2 1 1 1 0 1 1 1 1 2 1 1 1 1 1 1 1 1 1 1 1 1 1 1 1
0 1 1 1 1 1 1 1 1 0 1 1 1 1 1 1 1 0 0 0 0 1 1 2 2 1 1 0 1 1 1 1 1 0 1 1 0 1
1 1 2 2 2 2 1 1 1 1 1 1 1 1 1 1 1 1 0 1 1 1 1 0 1 1 2 2 2 1 0 1 1 1 1 1 1 1
1 2 2 2 2 2 1 1 1 1 1 1 1 1 1 1 1 0 0 0 1 1 1 0 1 1 0 1 2 3 1 1 1 1 1 1 1 2
2 2 2 2 1 2 2 1 1 1 0 1 1 1 1 1 1 0 0 0 1 1 1 0 0 1 2 2 1 2 3 0 0 0 1 1 1 2
2 2 2 2 1 1 1 1 1 1 1 1 1 1 1 0 0 0 1 1 1 1 1 1 1 1 1 1 1 2 2 3 2 0 0 1 1 2
2 2 2 2 2 2 1 1 1 1 1 1 1 1 1 0 1 1 1 1 1 1 1 1 1 0 1 1 1 1 2 2 4 5 4 1 0 1
3 2 2 2 1 1 1 2 2 2 2 2 1 1 1 1 1 1 1 1 1 1 1 0 0 0 0 1 1 1 1 1 1 2 3 5 2 1
Wind_Direction
243 262 295 320 333 13 131 152 148 285 286 259 357 20 118 134 159 168 172 194 185 193 189 223 44 53 21 56 38 12 12 6 350 319 295 252 231 215
220 233 249 271 12 24 23 26 105 161 258 275 273 292 23 115 178 199 208 223 219 223 209 200 216 219 152 124 102 44 17 344 340 337 299 266 242 212
221 231 261 124 99 34 8 13 23 126 230 297 324 347 7 28 32 343 227 207 216 212 202 202 208 215 195 164 132 22 340 334 328 323 290 260 237 215
235 232 340 60 78 28 37 345 299 190 166 269 301 324 329 307 257 284 280 275 217 218 207 203 214 214 205 201 207 230 306 347 340 310 298 258 226 214
195 150 143 108 117 97 66 356 315 334 169 224 280 294 306 311 319 304 296 282 278 227 220 218 223 229 222 211 210 211 218 250 304 327 333 327 233 214
136 132 130 123 125 159 184 230 286 318 256 237 256 276 289 311 351 316 309 299 286 252 248 239 237 241 237 226 218 215 214 221 247 271 296 310 256 217
106 83 76 77 66 70 58 148 170 253 265 248 259 284 295 315 302 291 291 301 288 254 271 249 207 217 228 229 223 221 221 224 236 252 270 274 262 244
160 145 136 105 67 33 55 116 140 191 219 223 253 258 274 269 279 287 289 300 286 285 271 263 200 239 219 212 217 217 219 220 230 251 263 262 255 250
182 154 260 347 92 260 281 255 244 241 229 208 228 249 254 253 245 266 278 268 259 264 274 268 247 239 225 218 217 216 204 202 219 246 260 259 263 260
255 208 188 76 339 359 267 242 237 234 233 232 237 255 250 239 220 227 244 274 277 275 149 258 270 258 249 216 212 208 200 206 226 248 258 252 254 254
268 340 91 155 13 34 348 279 281 283 263 249 244 252 267 250 228 181 284 303 291 291 330 268 278 280 263 217 214 212 206 212 229 244 252 250 253 244
267 11 22 44 39 56 37 327 307 297 306 300 281 268 258 227 218 205 208 219 262 279 302 318 295 330 299 249 194 217 225 237 232 229 241 253 251 241
240 267 352 7 354 348 351 289 291 306 297 289 278 267 288 273 229 226 213 203 214 245 256 227 295 306 261 280 258 222 212 238 234 244 243 246 240 222
226 236 260 312 336 325 310 318 321 330 313 318 328 312 296 279 265 249 236 216 214 225 236 202 220 228 241 275 278 294 268 237 212 237 244 243 227 224
216 214 274 291 286 281 282 297 311 304 298 312 295 283 281 270 278 316 335 330 317 290 259 242 224 203 204 233 255 285 299 295 256 221 203 190 189 211
212 239 271 286 281 264 256 265 252 234 233 249 268 282 310 345 351 314 291 300 315 320 325 313 312 173 208 245 236 259 278 262 283 240 169 174 198 191
236 239 253 251 264 274 257 237 247 309 301 292 294 302 317 333 309 276 180 124 216 262 303 334 353 14 139 156 243 287 293 300 295 24 76 73 149 218
211 224 228 220 222 241 250 259 262 253 265 278 273 262 262 268 281 305 133 174 238 252 244 270 37 26 14 15 2 283 354 348 355 10 85 87 331 301
219 232 230 222 218 218 228 234 236 238 251 284 282 263 246 242 244 248 220 189 256 264 261 128 90 97 218 292 336 4 20 341 17 23 19 16 308 305
226 232 231 224 216 213 219 239 242 243 255 273 295 288 258 234 215 215 195 180 224 248 279 310 163 189 209 227 277 334 336 314 76 20 349 359 346 337
233 232 226 222 223 216 212 226 231 239 274 290 291 287 267 210 214 228 203 266 232 217 240 251 245 227 170 113 25 340 345 359 10 135 240 2 333 337
220 219 222 223 219 210 203 205 215 227 242 254 280 297 279 205 217 222 213 217 235 225 242 270 301 67 91 156 236 301 337 359 6 21 25 2 244 257
213 211 215 213 210 201 200 208 219 227 226 232 234 249 250 234 246 224 229 230 224 218 216 258 349 64 153 178 206 276 318 342 5 17 357 354 355 295
Height
1525 1525 1526 1526 1526 1527 1527 1527 1528 1527 1527 1528 1528 1528 1528 1527 1527 1527 1526 1526 1526 1526 1525 1525 1525 1525 1525 1525 1525 1526 1526 1526 1526 1526 1526 1527 1527 1528
1524 1524 1524 1524 1525 1525 1525 1525 1526 1526 1525 1526 1526 1526 1526 1526 1525 1525 1524 1524 1524 1523 1523 1523 1523 1523 1523 1523 1523 1523 1523 1524 1524 1523 1523 1524 1524 1525
1522 1522 1522 1522 1522 1523 1523 1523 1524 1524 1523 1523 1524 1523 1523 1523 1523 1523 1522 1522 1521 1521 1521 1521 1521 1521 1521 1521 1521 1521 1521 1521 1521 1520 1520 1519 1519 1521
1520 1520 1520 1521 1521 1521 1521 1521 1521 1521 1522 1521 1521 1521 1521 1520 1520 1520 1520 1519 1519 1519 1519 1518 1518 1518 1518 1519 1519 1519 1519 1518 1518 1518 1516 1516 1516 1517
1518 1519 1519 1519 1519 1519 1518 1518 1519 1519 1519 1519 1518 1518 1518 1518 1517 1517 1517 1517 1516 1516 1516 1516 1516 1516 1516 1516 1516 1516 1516 1516 1516 1515 1514 1514 1514 1515
1516 1517 1517 1516 1516 1516 1516 1516 1516 1516 1516 1516 1516 1516 1515 1515 1515 1514 1513 1514 1513 1513 1513 1513 1513 1513 1513 1513 1514 1514 1513 1513 1513 1513 1513 1513 1513 1514
1514 1515 1514 1514 1514 1514 1514 1513 1513 1513 1513 1513 1513 1512 1512 1511 1511 1511 1510 1510 1510 1510 1510 1510 1510 1510 1510 1510 1510 1511 1511 1511 1511 1511 1511 1511 1511 1512
1512 1512 1512 1511 1511 1511 1511 1511 1511 1510 1510 1510 1509 1509 1508 1508 1508 1507 1507 1506 1506 1507 1506 1506 1506 1506 1506 1507 1507 1507 1507 1508 1508 1508 1508 1508 1509 1509
1509 1509 1509 1508 1508 1508 1508 1508 1507 1507 1507 1507 1506 1505 1505 1505 1504 1504 1503 1503 1502 1503 1503 1502 1502 1502 1503 1503 1504 1504 1504 1504 1505 1505 1505 1506 1506 1507
1506 1506 1505 1505 1505 1504 1504 1504 1503 1503 1503 1503 1503 1502 1502 1502 1501 1501 1500 1500 1500 1500 1500 1499 1499 1499 1499 1500 1501 1501 1501 1502 1501 1501 1502 1502 1503 1503
1503 1503 1502 1502 1501 1501 1501 1500 1500 1500 1500 1500 1500 1499 1499 1498 1498 1498 1497 1497 1496 1496 1497 1496 1496 1496 1496 1496 1497 1498 1498 1498 1498 1498 1498 1499 1499 1500
1499 1499 1499 1499 1498 1498 1497 1497 1496 1496 1496 1496 1496 1496 1495 1495 1495 1495 1494 1494 1493 1493 1493 1493 1493 1493 1492 1493 1494 1494 1495 1495 1495 1495 1495 1495 1496 1496
1495 1495 1495 1495 1495 1494 1494 1493 1493 1493 1493 1493 1492 1492 1492 1492 1492 1491 1491 1491 1491 1491 1491 1491 1490 1490 1490 1490 1490 1491 1491 1491 1491 1492 1492 1492 1492 1492
1491 1491 1491 1491 1491 1491 1490 1490 1490 1490 1490 1489 1489 1488 1488 1488 1488 1488 1488 1488 1488 1488 1489 1489 1488 1488 1488 1487 1487 1487 1488 1488 1488 1488 1488 1488 1488 1488
1487 1487 1487 1487 1487 1487 1487 1487 1486 1486 1486 1485 1485 1485 1485 1485 1485 1485 1485 1485 1486 1486 1486 1486 1486 1486 1486 1485 1485 1484 1484 1484 1485 1485 1485 1485 1484 1485
1483 1483 1484 1484 1483 1483 1483 1483 1483 1483 1482 1482 1482 1482 1482 1482 1482 1482 1481 1481 1482 1482 1483 1483 1483 1483 1483 1483 1483 1482 1482 1482 1482 1482 1482 1482 1482 1482
1479 1479 1479 1480 1479 1479 1479 1479 1479 1479 1479 1479 1479 1479 1479 1479 1479 1479 1479 1479 1479 1478 1479 1480 1480 1481 1481 1481 1480 1480 1479 1479 1479 1479 1479 1478 1479 1480
1476 1475 1476 1476 1476 1476 1476 1476 1476 1476 1476 1476 1476 1476 1476 1476 1476 1476 1476 1476 1476 1476 1476 1477 1477 1478 1478 1478 1479 1477 1477 1477 1477 1477 1476 1476 1476 1477
1473 1472 1472 1472 1472 1473 1473 1473 1473 1473 1473 1473 1473 1473 1473 1473 1473 1473 1473 1473 1473 1474 1474 1475 1475 1475 1475 1474 1475 1476 1475 1474 1474 1474 1474 1474 1474 1474
1469 1469 1469 1469 1469 1470 1470 1470 1470 1470 1470 1470 1470 1470 1470 1470 1470 1471 1471 1471 1471 1472 1472 1472 1472 1472 1473 1473 1473 1473 1474 1473 1472 1471 1471 1471 1472 1473
1465 1465 1465 1466 1466 1466 1467 1467 1467 1467 1467 1467 1467 1467 1467 1467 1468 1468 1468 1469 1469 1469 1470 1470 1471 1472 1471 1471 1471 1470 1471 1471 1470 1470 1469 1469 1469 1469
1462 1462 1462 1462 1463 1463 1463 1464 1464 1464 1464 1464 1464 1464 1464 1465 1465 1466 1466 1467 1467 1467 1468 1469 1469 1469 1469 1469 1468 1468 1468 1468 1468 1468 1469 1468 1467 1467
1458 1459 1459 1459 1459 1460 1460 1460 1460 1461 1461 1461 1461 1462 1462 1462 1463 1463 1464 1465 1465 1466 1466 1467 1467 1467 1467 1467 1467 1467 1467 1467 1467 1466 1466 1467 1467 1467